sat.trackr.live / text

‹ back to catalog

2025-155P

NORAD 64889 · 2025-155P

PAYLOAD ACTIVE UNKNOWN

§ Identity

Operator
Country
TBD
Launch date
2025-07-25
Launch site
VOSTO
Launch vehicle
Mass (kg)
RCS (m²)

External: N2YO · Heavens-Above · Gunter

§ Orbital elements

Epoch: 2026-09-21T22:21:24.601536Z

Period
94.28 min
Inclination
97.4713°
Eccentricity
0.0006860
Mean motion
15.27290474 rev/d
Perigee alt
479.2 km
Apogee alt
488.6 km
Semi-major
6,862.1 km
B*
1.2882e-4
RAAN
232.7754°
Arg perigee
180.8442°
Mean anomaly
179.2786°
Rev number
9,547

§ Raw data

2025-155P1 64889U 25155P   26264.93153474  .00003370  00000+0  12882-3 0  99952 64889  97.4713 232.7754 0006860 180.8442 179.2786 15.27290474 95471

JSON: /api/v1/satellites/64889 · /tle

For live sub-satellite position, see the globe view (requires WebGL).

§ Visibility from observer

Set your observer location to see the next 7 days of passes ≥ 10°. The values pass through the URL so the page stays shareable.

No JS? Fill the form by hand. The geolocation button needs JavaScript.